Home   Weather   Coral Harbour   Past weeks

Flag for Canada Past Weather in Coral Harbour, Nunavut, Canada — Yesterday and Last 2 Weeks

Now
10 °F

Light snow. Overcast.


Feels Like: 1 °F
Forecast: 5 / 11 °F
Wind: 6 mph from North

Location: Coral Harbour

Current Time: Dec 4, 2016 at 7:27:10 pm

Latest Report: Dec 4, 2016 at 6:00 pm


Visibility: 15 mi

Pressure: 30.00 "Hg

Humidity: 92%

Dew Point: 9 °F

Location of Coral HarbourLocation

Past Weather in Coral Harbour — Graph

°F

Coral Harbour Temperature Yesterday

Maximum temperature yesterday: 18 °F (at 12:00 am)
Minimum temperature yesterday: 12 °F (at 7:00 pm)
Average temperature yesterday: 16 °F

High & Low Weather Summary for the Past Weeks

 TemperatureHumidityPressure
High27 °F (Nov 23, 12:00 am)100% (Nov 22, 8:00 pm)30.39 "Hg (Nov 22, 8:00 pm)
Low-18 °F (Nov 21, 8:00 pm)75% (Nov 21, 8:00 pm)29.88 "Hg (Nov 19, 6:00 pm)
Average11 °F88%30.16 "Hg
* Reported Nov 19 6:00 pm — Dec 4 6:00 pm, Coral Harbour, Weather by CustomWeather, © 2016

Note: Actual official high and low records may vary slightly from our data, if they occured in-between our weather recording intervals... More about our weather records

Advertising

Coral Harbour Weather History for the Previous 24 Hours

Scroll right to see more
 ConditionsComfort  
Time TempWeatherWind HumidityBarometerVisibility
6:00 pm
Sun, Dec 4
10 °FLight snow. Overcast.6 mph92%30.00 "Hg15 mi
5:00 pm10 °FLight snow. Passing clouds.7 mph85%29.99 "Hg15 mi
4:00 pm9 °FLight snow. Passing clouds.8 mph85%30.00 "Hg15 mi
3:00 pm10 °FLight snow. Partly sunny.2 mph85%30.00 "Hg15 mi
2:00 pm9 °FLight snow. Partly sunny.6 mph85%30.00 "Hg15 mi
1:00 pm9 °FLight snow. Partly sunny.6 mph85%30.01 "Hg15 mi
12:00 pm12 °FLight snow. Partly sunny.6 mph85%30.01 "Hg15 mi
11:00 am12 °FLight snow. Overcast.9 mph85%30.01 "Hg15 mi
10:00 am12 °FLight snow. Overcast.7 mph92%30.01 "Hg15 mi
9:00 am12 °FLight snow. Overcast.7 mph92%30.01 "Hg15 mi
8:00 am14 °FLight snow. Overcast.9 mph92%30.01 "Hg15 mi
7:00 am14 °FLight snow. Overcast.7 mph92%30.01 "Hg15 mi
6:00 am12 °FLight snow. Overcast.8 mph85%30.01 "Hg15 mi
5:00 am12 °FLight snow. Overcast.7 mph85%30.02 "Hg15 mi
4:00 am12 °FLight snow. Overcast.10 mph85%30.01 "Hg15 mi
3:00 am12 °FLight snow. Overcast.9 mph92%30.01 "Hg15 mi
2:00 am12 °FLight snow. Overcast.8 mph92%30.01 "Hg15 mi
1:00 am12 °FLight snow. Overcast.8 mph92%30.01 "Hg15 mi
12:00 am14 °FLight snow. Overcast.8 mph92%29.99 "Hg15 mi
11:00 pm
Sat, Dec 3
14 °FLight snow. Overcast.8 mph92%29.98 "Hg15 mi
10:00 pm16 °FLight snow. Overcast.9 mph86%29.97 "Hg15 mi
9:00 pm12 °FLight snow. Overcast.9 mph92%29.97 "Hg12 mi
8:00 pm12 °FLight snow. Overcast.5 mph92%29.97 "Hg12 mi
7:00 pm12 °FLight snow. Overcast.3 mph92%29.97 "Hg12 mi
Weather by CustomWeather, © 2016

See weather overviewHow to use our weather pages